Погода в Новом Хушете

Россия / Республика Дагестан     42°53′57″N   47°33′40″E
темп.,
°C
ветер,
м/с
пор.,
м/с
влажн.,
%
обл.,
%
осадки,
мм/ч
давл.,
гПа
погр.,
м
23 мая, пн
пн2300:00+17юв23630 0.0 99942
03:00+16зсз4568100 0.0 1000120
06:00+17сз6125532 0.0 1000371
09:00+21сз1114510 0.0 1000683
12:00+22с7105539 0.0 10021179
15:00+19с5764100 0.6 1003687
18:00+18сз4660100 0.0 1001627
21:00+16сз5783100 2.0 1004365
24 мая, вт
вт2400:00+14зсз7989100 1.5 1004467
03:00+14зсз81390100 5.2 1005835
06:00+14зсз81387100 3.1 1006760
09:00+14зсз71287100 4.9 1008724
12:00+15сз91176100 0.3 1009866
15:00+18сз91159100 0.3 10091068
18:00+17зсз796058 0.0 1011789
21:00+15зсз4767100 0.0 1013237
25 мая, ср
ср2500:00+14сз4767100 0.0 1013275
03:00+14сз5970100 0.0 1014419
06:00+14зсз6977100 0.3 1017512
09:00+14з4677100 1.8 1019537
12:00+14з3470100 0.9 1020439
15:00+16з225774 1.0 1020606
18:00+17св115884 0.0 1020425
21:00+14ю34714 0.0 102282
26 мая, чт
чт2600:00+14юз22695 0.0 102117
03:00+13з22675 0.0 102145
06:00+15з235887 0.0 1022118
09:00+17зсз4658100 0.1 1023639
12:00+17сз455654 0.0 1023762
15:00+20сз024754 0.0 10221066
18:00+18юв44538 0.0 1022771
21:00+16ююв45643 0.0 1022111
27 мая, пт
пт2700:00+16ю33635 0.0 102140
03:00+15ю226111 0.0 102119
06:00+17ю2255100 0.0 102156
09:00+19юв555165 0.0 1020575
12:00+20вюв66520 0.0 1019738
15:00+20юв77560 0.0 1018624
18:00+19юв66640 0.0 1018294
21:00+17юв44733 0.0 101996